Weather History for Caldwell, NJ

Change the Weather History Date:

Sunday, February 17, 2013

  Actual Average Record
Temperature  
Mean Temperature 24 °F -  
Max Temperature 30 °F 39 °F 73 °F (1954)
Min Temperature 17 °F 21 °F 3 °F (1963)
Degree Days  
Heating Degree Days 42    
Moisture  
Dew Point 3 °F    
Average Humidity 38    
Maximum Humidity 49    
Minimum Humidity 29    
Precipitation  
Precipitation 0.00 in - - ()
Sea Level Pressure  
Sea Level Pressure 29.80 in    
Wind  
Wind Speed 12 mph (NW)    
Max Wind Speed 23 mph    
Max Gust Speed 39 mph    
Visibility 10 miles    
Events      
Averages and records for this station are not official NWS values.
T = Trace of Precipitation, MM = Missing Value Source: NWS Daily Summary

Daily Weather History Graph

Daily Weather History Graph

Search for Another Location

Airport:

Trip Planner

Search our weather history database for the weather conditions in past years. The results will help you decide how hot, cold, wet, or windy it might be!

Date:

Astronomy

Feb. 17, 2013 Rise Set
Actual Time 6:48 AM EST 5:34 PM EST
Civil Twilight 6:20 AM EST 6:02 PM EST
Nautical Twilight 5:48 AM EST 6:34 PM EST
Astronomical Twilight 5:16 AM EST 7:06 PM EST
Moon 10:36 AM EST (2/17) 12:30 AM EST (2/17)
Length of Visible Light 11h 42m
Length of Day
10h 46m
Waxing Crescent, 49% of the Moon is Illuminated
Feb 17
Waxing Crescent
Feb 17
First Quarter
Feb 25
Full
Mar 4
Last Quarter
Mar 11
New

Hourly Weather History & Observations

Time (EST) Temp. Windchill Dew Point Humidity Pressure Visibility Wind Dir Wind Speed Gust Speed Precip Events Conditions
12:53 AM 28.9 °F 22.8 °F 10.0 °F 45% 29.77 in 10.0 mi Variable 5.8 mph 17.3 mph N/A   Overcast
1:53 AM 28.0 °F 21.7 °F 9.0 °F 45% 29.76 in 10.0 mi Variable 5.8 mph - N/A   Overcast
2:53 AM 28.0 °F 20.8 °F 9.0 °F 45% 29.73 in 10.0 mi Variable 6.9 mph - N/A   Overcast
3:53 AM 27.0 °F 18.0 °F 10.0 °F 49% 29.73 in 10.0 mi NNW 9.2 mph - N/A   Overcast
4:53 AM 27.0 °F 18.0 °F 6.1 °F 41% 29.73 in 10.0 mi NNW 9.2 mph 17.3 mph N/A   Overcast
5:53 AM 27.0 °F 16.7 °F 1.9 °F 34% 29.72 in 10.0 mi NNW 11.5 mph 20.7 mph N/A   Partly Cloudy
6:53 AM 26.1 °F 15.6 °F 1.0 °F 34% 29.71 in 10.0 mi NNW 11.5 mph 28.8 mph N/A   Partly Cloudy
7:53 AM 26.1 °F 13.6 °F -0.0 °F 32% 29.73 in 10.0 mi NNW 16.1 mph 23.0 mph N/A   Clear
8:53 AM 26.1 °F 13.6 °F -0.0 °F 32% 29.73 in 10.0 mi NW 16.1 mph 24.2 mph N/A   Clear
9:53 AM 27.0 °F 15.2 °F 1.0 °F 33% 29.74 in 10.0 mi NNW 15.0 mph 31.1 mph N/A   Clear
10:53 AM 28.9 °F 17.7 °F 1.0 °F 30% 29.73 in 10.0 mi NNW 15.0 mph 28.8 mph N/A   Clear
11:53 AM 30.0 °F 17.9 °F 1.9 °F 30% 29.74 in 10.0 mi NW 18.4 mph 34.5 mph N/A   Clear
12:53 PM 30.0 °F 17.9 °F 1.9 °F 30% 29.74 in 10.0 mi NNW 18.4 mph 28.8 mph N/A   Clear
1:53 PM 30.0 °F 16.9 °F 1.0 °F 29% 29.76 in 10.0 mi NW 21.9 mph 39.1 mph N/A   Scattered Clouds
2:53 PM 27.0 °F 12.5 °F 1.0 °F 33% 29.78 in 10.0 mi WNW 23.0 mph 32.2 mph N/A   Partly Cloudy
3:53 PM 28.0 °F 14.9 °F 3.0 °F 34% 29.80 in 10.0 mi NNW 19.6 mph 34.5 mph N/A   Scattered Clouds
4:53 PM 26.1 °F 12.3 °F 5.0 °F 41% 29.83 in 10.0 mi NW 19.6 mph 31.1 mph N/A   Overcast
5:53 PM 24.1 °F 9.4 °F 3.0 °F 40% 29.86 in 10.0 mi WNW 20.7 mph 29.9 mph N/A   Clear
6:53 PM 21.9 °F 9.2 °F 1.0 °F 40% 29.92 in 10.0 mi NW 13.8 mph 32.2 mph N/A   Clear
7:53 PM 21.0 °F 6.2 °F -0.0 °F 40% 29.95 in 10.0 mi NW 18.4 mph 34.5 mph N/A   Clear
8:53 PM 19.0 °F 3.6 °F -0.0 °F 43% 29.99 in 10.0 mi NW 18.4 mph 27.6 mph N/A   Scattered Clouds
9:53 PM 17.1 °F 1.0 °F -2.0 °F 43% 30.01 in 10.0 mi NW 18.4 mph 29.9 mph N/A   Clear
10:53 PM 17.1 °F 1.0 °F -0.9 °F 45% 30.02 in 10.0 mi WNW 18.4 mph 32.2 mph N/A   Partly Cloudy